Location: Munkebjergskolens Observatorium
(55.3864°N, 10.3987°E)
Time: 05:31:10
(UTC+02:00)

KKS-1 - Pass Details

Date: 09 April 2023
Orbit: 633 x 644 km, 98.2° (Epoch: 31 May)

Event Time Altitude Azimuth Distance (km) Brightness Sun altitude
Rises 22:33:09 0° 28° (NNE) 2,945 ? -18.0°
Reaches altitude 10° 22:36:27 10° 55° (NE) 2,031 ? -18.4°
Enters shadow 22:37:52 13° 73° (ENE) 1,824 ? -18.5°
